This is the latest recevied weather packets stored in our database for station/object W8KHW. If no packets are shown the sender has not sent any weather packets the latest 1 day(s).
| Time | Temp. | Humidity | Pressure | Rain* | Wind** | Luminosity | Snow |
|---|---|---|---|---|---|---|---|
| 1778050520 | 8.33° C | 99% | 1007.7 hPa | 2.79 mm | - | - | - |
| 1778050020 | 8.33° C | 99% | 1007.5 hPa | 2.54 mm | - | - | - |
| 1778049520 | 8.33° C | 99% | 1007.5 hPa | 2.29 mm | - | - | - |
| 1778047519 | 8.89° C | 99% | 1008.1 hPa | 1.78 mm | - | - | - |
| 1778047019 | 9.44° C | 99% | 1008 hPa | 1.52 mm | - | - | - |
| 1778046519 | 9.44° C | 99% | 1007.8 hPa | 1.27 mm | - | - | - |
| 1778046019 | 8.89° C | 99% | 1007.7 hPa | 1.02 mm | - | - | - |
| 1778045519 | 9.44° C | 99% | 1007.7 hPa | 1.02 mm | - | - | - |
| 1778044518 | 9.44° C | 99% | 1007.8 hPa | 0.51 mm | - | - | - |
| 1778044018 | 9.44° C | 99% | 1007.8 hPa | 0.25 mm | - | - | - |
| 1778043518 | 9.44° C | 99% | 1008 hPa | 0 mm | - | - | - |
| 1778043018 | 9.44° C | 99% | 1007.9 hPa | 0 mm | - | - | - |
| 1778041517 | 10° C | 99% | 1007.9 hPa | 0.51 mm | - | - | - |
| 1778041017 | 10° C | 99% | 1008 hPa | 0.76 mm | - | - | - |
| 1778040516 | 10° C | 99% | 1008.1 hPa | 1.52 mm | - | - | - |
| 1778040016 | 10° C | 99% | 1008.4 hPa | 2.03 mm | - | - | - |
| 1778039516 | 10° C | 99% | 1008.3 hPa | 2.79 mm | - | - | - |
| 1778039016 | 10° C | 99% | 1008.4 hPa | 2.79 mm | - | - | - |
| 1778038516 | 10° C | 99% | 1008.5 hPa | 2.79 mm | - | - | - |
| 1778038015 | 10° C | 99% | 1008.5 hPa | 2.79 mm | - | - | - |
| 1778037015 | 11.11° C | 99% | 1008.9 hPa | 2.54 mm | - | - | - |
| 1778036515 | 11.67° C | 99% | 1009.2 hPa | 2.03 mm | - | - | - |
| 1778036015 | 12.22° C | 99% | 1009 hPa | 1.78 mm | - | - | - |
| 1778035014 | 14.44° C | 99% | 1008.4 hPa | 2.29 mm | - | - | - |
| 1778034014 | 15° C | 99% | 1008.5 hPa | 2.54 mm | - | - | - |
* Rain latest hour (hover to see other rain measurements)
** Current wind speed in m/s (hover to see current wind gust speed)